| time (UTC) | temp C | wind direction | speed KPH | gust KPH | rain 1hr cm | rain 24hr cm | rain mn cm | humidity % | barometer mb |
| 20260906221542 | 35 | 108 | 4.8 | 0.0 | 0.00 | 0.00 | 0.00 | 35 | 1004.2 |
| 20260906220039 | 35 | 69 | 4.8 | 0.0 | 0.00 | 0.00 | 0.00 | 35 | 1004.4 |
| 20260906214540 | 34 | 123 | 4.8 | 0.0 | 0.00 | 0.00 | 0.00 | 35 | 1004.7 |
| 20260906213036 | 34 | 114 | 4.8 | 0.0 | 0.00 | 0.00 | 0.00 | 35 | 1004.8 |
| 20260906211541 | 36 | 63 | 6.4 | 0.0 | 0.00 | 0.00 | 0.00 | 31 | 1004.8 |
| 20260906210035 | 35 | 148 | 6.4 | 0.0 | 0.00 | 0.00 | 0.00 | 33 | 1005.2 |
| 20260906204534 | 34 | 155 | 4.8 | 0.0 | 0.00 | 0.00 | 0.00 | 34 | 1005.4 |
| 20260906203030 | 35 | 146 | 6.4 | 0.0 | 0.00 | 0.00 | 0.00 | 34 | 1005.7 |
| 20260906201529 | 36 | 59 | 6.4 | 0.0 | 0.00 | 0.00 | 0.00 | 33 | 1005.7 |
| 20260906200038 | 35 | 59 | 6.4 | 0.0 | 0.00 | 0.00 | 0.00 | 34 | 1005.8 |
| 20260906194525 | 35 | 138 | 6.4 | 0.0 | 0.00 | 0.00 | 0.00 | 35 | 1006.0 |
| 20260906193024 | 35 | 106 | 3.2 | 0.0 | 0.00 | 0.00 | 0.00 | 37 | 1006.2 |
| 20260906191535 | 34 | 145 | 6.4 | 0.0 | 0.00 | 0.00 | 0.00 | 37 | 1006.4 |
| 20260906190026 | 34 | 56 | 4.8 | 0.0 | 0.00 | 0.00 | 0.00 | 38 | 1006.6 |
| 20260906184523 | 33 | 155 | 6.4 | 0.0 | 0.00 | 0.00 | 0.00 | 39 | 1006.6 |
| 20260906183026 | 33 | 147 | 9.7 | 0.0 | 0.00 | 0.00 | 0.00 | 39 | 1007.0 |
| 20260906181539 | 34 | 105 | 8.0 | 0.0 | 0.00 | 0.00 | 0.00 | 38 | 1007.1 |
| 20260906180023 | 33 | 103 | 6.4 | 0.0 | 0.00 | 0.00 | 0.00 | 37 | 1007.3 |
| 20260906174518 | 35 | 128 | 4.8 | 0.0 | 0.00 | 0.00 | 0.00 | 37 | 1007.6 |
| 20260906173016 | 34 | 156 | 6.4 | 0.0 | 0.00 | 0.00 | 0.00 | 39 | 1007.7 |
| 20260906171514 | 33 | 103 | 4.8 | 0.0 | 0.00 | 0.00 | 0.00 | 39 | 1007.7 |
| 20260906170011 | 33 | 134 | 4.8 | 0.0 | 0.00 | 0.00 | 0.00 | 42 | 1007.8 |
| 20260906164508 | 33 | 96 | 3.2 | 0.0 | 0.00 | 0.00 | 0.00 | 43 | 1007.7 |
| 20260906163004 | 33 | 64 | 4.8 | 0.0 | 0.00 | 0.00 | 0.00 | 46 | 1007.7 |
| 20260906161502 | 32 | 63 | 4.8 | 0.0 | 0.00 | 0.00 | 0.00 | 48 | 1007.7 |
| 20260906160058 | 32 | 159 | 3.2 | 0.0 | 0.00 | 0.00 | 0.00 | 49 | 1007.7 |
| 20260906154553 | 32 | 87 | 3.2 | 0.0 | 0.00 | 0.00 | 0.00 | 50 | 1007.7 |
| 20260906153049 | 31 | 88 | 1.6 | 0.0 | 0.00 | 0.00 | 0.00 | 52 | 1007.5 |
| 20260906151549 | 30 | 119 | 1.6 | 0.0 | 0.00 | 0.00 | 0.00 | 55 | 1007.5 |
| 20260906150044 | 29 | 161 | 1.6 | 0.0 | 0.00 | 0.00 | 0.00 | 56 | 1007.5 |
| 20260906144547 | 28 | 105 | 1.6 | 0.0 | 0.00 | 0.00 | 0.00 | 60 | 1007.5 |
| 20260906143034 | 27 | 113 | 3.2 | 0.0 | 0.00 | 0.00 | 0.00 | 62 | 1007.7 |
| 20260906141533 | 26 | 112 | 1.6 | 0.0 | 0.00 | 0.00 | 0.00 | 67 | 1007.6 |
| 20260906140023 | 25 | 96 | 1.6 | 0.0 | 0.00 | 0.00 | 0.00 | 69 | 1007.6 |
| 20260906134528 | 25 | 61 | 1.6 | 0.0 | 0.00 | 0.00 | 0.00 | 71 | 1007.5 |
| 20260906133018 | 24 | 121 | 1.6 | 0.0 | 0.00 | 0.00 | 0.00 | 72 | 1007.3 |
| 20260906131515 | 23 | 115 | 1.6 | 0.0 | 0.00 | 0.00 | 0.00 | 73 | 1007.1 |
| 20260906130013 | 23 | 148 | 0.0 | 0.0 | 0.00 | 0.00 | 0.00 | 73 | 1006.9 |
| 20260906124510 | 23 | 150 | 0.0 | 0.0 | 0.00 | 0.00 | 0.00 | 73 | 1006.8 |
| 20260906123011 | 23 | 150 | 0.0 | 0.0 | 0.00 | 0.00 | 0.00 | 72 | 1006.7 |
| 20260906121506 | 23 | 150 | 0.0 | 0.0 | 0.00 | 0.00 | 0.00 | 72 | 1006.6 |
| 20260906120005 | 23 | 150 | 0.0 | 0.0 | 0.00 | 0.00 | 0.00 | 71 | 1006.6 |
| 20260906114508 | 23 | 149 | 0.0 | 0.0 | 0.00 | 0.00 | 0.00 | 70 | 1006.6 |
| 20260906113001 | 23 | 149 | 0.0 | 0.0 | 0.00 | 0.00 | 0.00 | 69 | 1006.4 |
| 20260906111601 | 24 | 149 | 0.0 | 0.0 | 0.00 | 0.00 | 0.00 | 69 | 1006.5 |
| 20260906110058 | 24 | 149 | 0.0 | 0.0 | 0.00 | 0.00 | 0.00 | 68 | 1006.3 |
| 20260906104603 | 24 | 148 | 0.0 | 0.0 | 0.00 | 0.00 | 0.00 | 67 | 1006.0 |
| 20260906103055 | 25 | 149 | 0.0 | 0.0 | 0.00 | 0.00 | 0.00 | 66 | 1005.9 |
| 20260906101555 | 25 | 150 | 0.0 | 0.0 | 0.00 | 0.00 | 0.00 | 66 | 1006.0 |
| 20260906100052 | 25 | 148 | 0.0 | 0.0 | 0.00 | 0.00 | 0.00 | 66 | 1005.8 |
| 20260906094607 | 25 | 149 | 1.6 | 0.0 | 0.00 | 0.00 | 0.00 | 65 | 1005.8 |
| 20260906093119 | 25 | 148 | 1.6 | 0.0 | 0.00 | 0.00 | 0.00 | 65 | 1005.9 |
| 20260906091548 | 25 | 147 | 1.6 | 0.0 | 0.00 | 0.00 | 0.00 | 64 | 1005.7 |
| 20260906090046 | 25 | 145 | 1.6 | 0.0 | 0.00 | 0.00 | 0.00 | 63 | 1005.8 |
| 20260906084546 | 26 | 146 | 1.6 | 0.0 | 0.00 | 0.00 | 0.00 | 63 | 1005.9 |
| 20260906083048 | 26 | 150 | 3.2 | 0.0 | 0.00 | 0.00 | 0.00 | 62 | 1005.9 |
| 20260906081542 | 26 | 152 | 3.2 | 0.0 | 0.00 | 0.00 | 0.00 | 62 | 1005.8 |
| 20260906080043 | 26 | 148 | 3.2 | 0.0 | 0.00 | 0.00 | 0.00 | 61 | 1005.8 |
| 20260906074539 | 26 | 150 | 4.8 | 0.0 | 0.00 | 0.00 | 0.00 | 60 | 1005.9 |
| 20260906073038 | 26 | 150 | 1.6 | 0.0 | 0.00 | 0.00 | 0.00 | 58 | 1005.9 |
| 20260906071538 | 27 | 160 | 3.2 | 0.0 | 0.00 | 0.00 | 0.00 | 57 | 1006.0 |
| 20260906070034 | 27 | 157 | 4.8 | 0.0 | 0.00 | 0.00 | 0.00 | 57 | 1005.9 |
| 20260906064533 | 27 | 145 | 4.8 | 0.0 | 0.00 | 0.00 | 0.00 | 56 | 1005.9 |
| 20260906063033 | 27 | 138 | 3.2 | 0.0 | 0.00 | 0.00 | 0.00 | 55 | 1006.2 |
| 20260906061530 | 27 | 172 | 4.8 | 0.0 | 0.00 | 0.00 | 0.00 | 55 | 1006.3 |
| 20260906060027 | 27 | 159 | 6.4 | 0.0 | 0.00 | 0.00 | 0.00 | 54 | 1006.4 |
| 20260906054526 | 28 | 136 | 6.4 | 0.0 | 0.00 | 0.00 | 0.00 | 54 | 1006.4 |
| 20260906053024 | 28 | 163 | 8.0 | 0.0 | 0.00 | 0.00 | 0.00 | 53 | 1006.5 |
| 20260906051523 | 28 | 151 | 8.0 | 0.0 | 0.00 | 0.00 | 0.00 | 53 | 1006.4 |
| 20260906050022 | 28 | 159 | 9.7 | 0.0 | 0.00 | 0.00 | 0.00 | 53 | 1006.5 |
| 20260906044519 | 28 | 190 | 11.3 | 0.0 | 0.00 | 0.00 | 0.00 | 53 | 1006.6 |
| 20260906043020 | 29 | 164 | 9.7 | 0.0 | 0.00 | 0.00 | 0.00 | 52 | 1006.5 |
| 20260906041518 | 30 | 156 | 8.0 | 0.0 | 0.00 | 0.00 | 0.00 | 47 | 1006.4 |
| 20260906040024 | 31 | 103 | 8.0 | 0.0 | 0.00 | 0.00 | 0.00 | 44 | 1006.1 |
| 20260906034517 | 31 | 115 | 3.2 | 0.0 | 0.00 | 0.00 | 0.00 | 43 | 1005.8 |
| 20260906033017 | 31 | 116 | 3.2 | 0.0 | 0.00 | 0.00 | 0.00 | 43 | 1005.6 |
| 20260906031516 | 31 | 109 | 3.2 | 0.0 | 0.00 | 0.00 | 0.00 | 42 | 1005.5 |
| 20260906030014 | 31 | 94 | 4.8 | 0.0 | 0.00 | 0.00 | 0.00 | 42 | 1005.2 |
| 20260906024531 | 32 | 109 | 3.2 | 0.0 | 0.00 | 0.00 | 0.00 | 41 | 1004.9 |
| 20260906023019 | 32 | 112 | 3.2 | 0.0 | 0.00 | 0.00 | 0.00 | 40 | 1004.6 |
| 20260906021512 | 32 | 71 | 3.2 | 0.0 | 0.00 | 0.00 | 0.00 | 38 | 1004.5 |
| 20260906020011 | 32 | 113 | 3.2 | 0.0 | 0.00 | 0.00 | 0.00 | 39 | 1004.1 |
| 20260906014512 | 32 | 115 | 4.8 | 0.0 | 0.00 | 0.00 | 0.00 | 41 | 1004.0 |
| 20260906013032 | 33 | 131 | 3.2 | 0.0 | 0.00 | 0.00 | 0.00 | 39 | 1003.8 |
| 20260906011509 | 33 | 98 | 4.8 | 0.0 | 0.00 | 0.00 | 0.00 | 36 | 1003.7 |
| 20260906010009 | 33 | 109 | 4.8 | 0.0 | 0.00 | 0.00 | 0.00 | 35 | 1003.6 |
| 20260906004508 | 35 | 128 | 4.8 | 0.0 | 0.00 | 0.00 | 0.00 | 34 | 1003.5 |
| 20260906003008 | 35 | 104 | 4.8 | 0.0 | 0.00 | 0.00 | 0.00 | 32 | 1003.5 |
| 20260906001507 | 35 | 60 | 6.4 | 0.0 | 0.00 | 0.00 | 0.00 | 32 | 1003.4 |
| 20260906000006 | 36 | 99 | 4.8 | 0.0 | 0.00 | 0.00 | 0.00 | 30 | 1003.2 |
| 20260905234506 | 36 | 114 | 3.2 | 0.0 | 0.00 | 0.00 | 0.00 | 30 | 1003.2 |
| 20260905233006 | 36 | 62 | 4.8 | 0.0 | 0.00 | 0.00 | 0.00 | 30 | 1002.8 |
| 20260905231505 | 36 | 123 | 6.4 | 0.0 | 0.00 | 0.00 | 0.00 | 30 | 1002.9 |
| 20260905230004 | 36 | 74 | 4.8 | 0.0 | 0.00 | 0.00 | 0.00 | 31 | 1002.8 |
| 20260905224502 | 37 | 149 | 6.4 | 0.0 | 0.00 | 0.00 | 0.00 | 30 | 1002.8 |
| 20260905223002 | 37 | 117 | 4.8 | 0.0 | 0.00 | 0.00 | 0.00 | 31 | 1002.8 |